Location: Amherst
(42.5000°N, 72.5000°W)
Time: 13:32:59
(UTC-04:00)

ISS - Pass Details

Date: 24 May 2018
Orbit: 402 x 407 km, 51.6° (Epoch: 27 May)

Event Time Altitude Azimuth Distance (km) Brightness Sun altitude
Rises 01:32:56 0° 307° (NW) 2,320 0.3 -25.8°
Reaches altitude 10° 01:35:12 10° 319° (NW) 1,458 -0.6 -25.8°
Enters shadow 01:37:39 27° 6° (N) 819 -1.7 -25.7°
